Home   Weather   Worcester   Past weeks

Flag for USA Past Weather in Worcester, Massachusetts, USA — Yesterday and Last 2 Weeks

Now
51 °F

Clear.


Feels Like: 47 °F
Forecast: 43 / 69 °F
Wind: 10 mph from Southwest

Location: Worcester Regional Airport

Current Time: Apr 23, 2017 at 9:51:43 pm

Latest Report: Apr 23, 2017 at 8:54 pm


Visibility: 10 mi

Pressure: 30.09 "Hg

Humidity: 59%

Dew Point: 37 °F

Location of WorcesterLocation

Past Weather in Worcester — Graph

°F

Worcester Temperature Yesterday

Maximum temperature yesterday: 46 °F (at 4:37 pm)
Minimum temperature yesterday: 39 °F (at 3:54 am)
Average temperature yesterday: 41 °F

High & Low Weather Summary for the Past Weeks

 TemperatureHumidityPressure
High82 °F (Apr 11, 2:54 pm)97% (Apr 21, 11:54 am)30.57 "Hg (Apr 21, 11:54 am)
Low32 °F (Apr 9, 4:54 am)14% (Apr 9, 6:54 pm)29.67 "Hg (Apr 16, 6:54 pm)
Average51 °F60%30.12 "Hg
* Reported Apr 8 7:54 pm — Apr 23 7:54 pm, Worcester, Weather by CustomWeather, © 2017

Note: Actual official high and low records may vary slightly from our data, if they occured in-between our weather recording intervals... More about our weather records

Advertising

Worcester Weather History for the Previous 24 Hours

Scroll right to see more
 ConditionsComfort  
Time TempWeatherWind HumidityBarometerVisibility
7:54 pm
Sun, Apr 23
55 °FClear.14 mph51%30.06 "Hg10 mi
6:54 pm61 °FSunny.14 mph38%30.04 "Hg10 mi
5:54 pm64 °FSunny.8 mph24%30.03 "Hg10 mi
4:54 pm64 °FSunny.7 mph22%30.03 "Hg10 mi
3:54 pm63 °FSunny.5 mph28%30.03 "Hg10 mi
2:54 pm62 °FSunny.No wind30%30.04 "Hg10 mi
1:54 pm60 °FSunny.No wind35%30.06 "Hg10 mi
12:54 pm57 °FSunny.No wind41%30.07 "Hg10 mi
11:54 am55 °FSunny.5 mph45%30.08 "Hg10 mi
10:54 am52 °FSunny.6 mph49%30.09 "Hg10 mi
9:54 am49 °FSunny.7 mph55%30.10 "Hg10 mi
8:54 am46 °FSunny.14 mph58%30.09 "Hg10 mi
7:54 am43 °FSunny.13 mph65%30.08 "Hg10 mi
6:54 am40 °FSunny.8 mph73%30.05 "Hg10 mi
5:54 am38 °FSunny.7 mph83%30.03 "Hg10 mi
4:54 am38 °FClear.3 mph83%30.02 "Hg10 mi
3:54 am40 °FClear.9 mph80%30.01 "Hg10 mi
2:54 am42 °FClear.8 mph73%30.01 "Hg10 mi
1:54 am43 °FPassing clouds.13 mph76%30.01 "Hg10 mi
12:54 am44 °FOvercast.10 mph79%30.00 "Hg10 mi
11:54 pm
Sat, Apr 22
43 °FPassing clouds.7 mph86%29.98 "Hg10 mi
10:54 pm44 °FPassing clouds.5 mph82%29.98 "Hg10 mi
9:54 pm43 °FPartly cloudy.3 mph89%29.98 "Hg10 mi
9:43 pm43 °FOvercast.No wind89%29.96 "Hg10 mi
9:05 pm43 °FPassing clouds.5 mph89%29.95 "Hg10 mi
Weather by CustomWeather, © 2017

See weather overviewHow to use our weather pages